Starlink 31281

operational
NORAD ID: 59077 Int'l Des: 2024-041 Owner: SPXS Country: US Constellation: starlink
LEOCIRCULAR

Über Starlink 31281

Beschreibung wird geladen...

Live-Position

3D-Globus wird geladen...

Nächste Überflüge

Höhenverlauf

Altitude vs Time

uPlot chart will show altitude changes over time

Zweizeiliger Elementsatz

1 59077U 24041D 25258.18257569 .00000744 00000-0 36548-4 0 9999
2 59077 43.0007 221.5631 0000851 279.5407 80.5349 15.27581636 87482
Epoch: 15. Sept. 2025 • Age: 9 hours

Aktueller Status

Höhe 487.8 km
Geschwindigkeit 7.62 km/s
Subsatellitenpunkt -22.24°S, 6.01°W
Startdatum 29. Feb. 2024
Alter 1.5 years
Typ internet

Technische Details

Klassifizierung Payload
Masse 730.00 kg
Trockenmasse 700.00 kg
Gesamtmasse 730.00 kg
Länge 0.30 m
Durchmesser 4.10 m
Spannweite 29.00 m
Form Box + pan
Hersteller SPXS
Bus-Typ Starlink V2M
Phasenstatus In Orbit
Besitzer/Staat SPXS/US

Große Konstellationen

Loading constellations...